Hourly Data Report for April 16, 2012

HALIFAX STANFIELD INT'L A
NOVA SCOTIA

44°52'48.060" N
63°30'00.050" W
145.40 m
8202250
71395
YHZ

Download Data

Hourly Data (April 2012)
Hourly Data Report for April 16, 2012
TIME
LST
Temp Definition
°C
Dew Point Definition
°C
Rel Hum Definition
%
Precip. Amount Definition
mm

Wind Dir Definition
10's deg

Wind Spd Definition
km/h
Visibility Definition
km
Stn Press Definition
kPa
Hmdx Definition


Wind Chill Definition


Weather Definition


00:00 3.6 3.4 99   15 13 0.6 100.19     Fog
01:00 3.1 2.8 98   15 15 0.6 100.22     Fog
02:00 3.0 2.8 99   15 19 0.4 100.20     Fog
03:00 2.6 2.4 99   14 20 0.4 100.22     Fog
04:00 2.3 2.0 98   15 13 0.4 100.18     Fog
05:00 2.9 2.7 99   16 15 0.4 100.22     Fog
06:00 4.4 4.3 99   14 24 0.4 100.23     Fog
07:00 5.6 5.5 99   16 15 0.2 100.33     Fog
08:00 7.4 7.4 100   16 17 0.4 100.41     Fog
09:00 8.7 8.7 100   15 20 0.4 100.43     Fog
10:00 10.3 10.3 100   16 24 3.2 100.44     Fog
11:00 14.5 11.3 81   18 33 24.1 100.40     Mostly Cloudy
12:00 16.2 11.2 72   17 32 24.1 100.40     Mostly Cloudy
13:00 16.8 11.3 70   18 33 24.1 100.37     Cloudy
14:00 18.3 11.4 64   20 35 24.1 100.37     Mostly Cloudy
15:00 18.8 11.1 61   18 33 24.1 100.35     Mainly Clear
16:00 17.3 11.1 67   20 32 24.1 100.32     Mainly Clear
17:00 16.7 11.3 70   19 28 24.1 100.31     Mainly Clear
18:00 14.6 11.1 80   18 20 24.1 100.29     Mainly Clear
19:00 12.0 10.9 93   16 24 12.9 100.25     Mainly Clear
20:00 10.8 10.6 99   18 20 0.8 100.32     Fog
21:00 9.9 9.8 99   18 20 0.6 100.32     Fog
22:00 10.0 9.9 99   16 17 3.2 100.30     Fog
23:00 10.0 9.8 99   18 24 3.2 100.24     Fog

Notes on Data Quality.

Legend

  • E = Estimated
  • M = Missing
  • NA = Not Available*
  • [empty] = Indicates an unobserved value
Date modified: